Home > Weather > Reykjavik > Past weeks

Flag for Iceland Past Weather in Reykjavik, Iceland — Yesterday and Last 2 Weeks

Now
46 °F

Light rain. Mostly cloudy.


Feels Like: 38 °F
Forecast: 46 / 48 °F
Wind: 23 mph from Southeast

Location: Reykjavik Airport

Current Time: May 25, 2016 at 3:34:22 AM

Latest Report: May 25, 2016 at 2:00 AM


Visibility: N/A

Pressure: 30.15 "Hg

Humidity: 82%

Dew Point: 41 °F

Location of ReykjavikLocation

Past Weather in Reykjavik — Graph

°F

Reykjavik Temperature Yesterday

Maximum temperature yesterday: 50 °F (at 11:00 AM)
Minimum temperature yesterday: 45 °F (at 5:00 AM)
Average temperature yesterday: 48 °F

High & Low Weather Summary for the Past Weeks

 TemperatureHumidityPressure
High55 °F (May 16, 2:00 PM)93% (May 14, 1:00 AM)30.54 "Hg (May 14, 1:00 AM)
Low34 °F (May 20, 5:00 AM)33% (May 16, 3:00 PM)29.62 "Hg (May 20, 12:00 PM)
Average44 °F68%30.03 "Hg
* Reported May 10 2:00 AM — May 25 2:00 AM, Reykjavik, Weather by CustomWeather, © 2016

Note: Actual official high and low records may vary slightly from our data, if they occured in-between our weather recording intervals... More about our weather records

Advertising

Reykjavik Weather History for the Previous 24 Hours

Scroll right to see more
 ConditionsComfort  
Time TempWeatherWind HumidityBarometerVisibility
2:00 AM
Wed, May 25
46 °FLight rain. Mostly cloudy.23 mph82%30.15 "HgN/A
1:00 AM46 °FLight rain. Overcast.21 mph82%30.15 "HgN/A
12:00 AM46 °FLight rain. Partly cloudy.23 mph76%30.15 "HgN/A
11:00 PM
Tue, May 24
48 °FLight rain. Broken clouds.23 mph71%30.15 "HgN/A
10:00 PM48 °FScattered showers. Broken clouds.25 mph71%30.15 "HgN/A
9:00 PM48 °FBroken clouds.25 mph71%30.18 "HgN/A
8:00 PM48 °FBroken clouds.24 mph71%30.18 "HgN/A
7:00 PM48 °FBroken clouds.24 mph71%30.15 "HgN/A
6:00 PM50 °FBroken clouds.24 mph62%30.18 "HgN/A
5:00 PM50 °FBroken clouds.24 mph62%30.18 "HgN/A
4:00 PM50 °FPartly sunny.21 mph62%30.18 "HgN/A
3:00 PM48 °FMostly cloudy.22 mph66%30.21 "HgN/A
2:00 PM48 °FMostly cloudy.18 mph66%30.21 "HgN/A
1:00 PM50 °FMostly cloudy.22 mph62%30.21 "HgN/A
12:00 PM50 °FBroken clouds.24 mph62%30.21 "HgN/A
11:00 AM50 °FBroken clouds.23 mph62%30.21 "HgN/A
10:00 AM48 °FBroken clouds.23 mph66%30.21 "HgN/A
9:00 AM48 °FBroken clouds.21 mph66%30.21 "HgN/A
8:00 AM46 °FBroken clouds.16 mph66%30.21 "HgN/A
7:00 AM46 °FBroken clouds.16 mph66%30.21 "HgN/A
6:00 AM46 °FPartly sunny.14 mph66%30.21 "HgN/A
5:00 AM45 °FBroken clouds.13 mph71%30.21 "HgN/A
4:00 AM46 °FMostly cloudy.13 mph71%30.18 "HgN/A
3:00 AM46 °FOvercast.16 mph66%30.18 "HgN/A
Weather by CustomWeather, © 2016

See weather overviewHow to use our weather pages